DW9636 Weather Reports


Display with metric or nautical units.
time (UTC)temp
F
wind
direction
speed
MPH
gust
MPH
rain 1hr
in
rain 24hr
in
rain mn
in
humidity
%
barometer
mb
20260504231512 72 313 0.0 0.0 0.00 0.00 0.00 37 1005.3
20260504230011 74 327 1.0 0.0 0.00 0.00 0.00 31 1005.4
20260504224510 74 330 0.0 0.0 0.00 0.00 0.00 30 1005.5
20260504223007 74 325 0.0 0.0 0.00 0.00 0.00 31 1005.6
20260504221509 74 326 1.0 0.0 0.00 0.00 0.00 29 1005.7
20260504220011 76 133 1.0 0.0 0.00 0.00 0.00 28 1005.7
20260504214502 74 13 1.0 0.0 0.00 0.00 0.00 29 1005.9
20260504213002 75 44 1.0 0.0 0.00 0.00 0.00 27 1005.9
20260504211502 76 26 0.0 0.0 0.00 0.00 0.00 28 1006.2
20260504210059 76 5 1.0 0.0 0.00 0.00 0.00 27 1006.1
20260504204603 73 320 0.0 0.0 0.00 0.00 0.00 33 1006.2
20260504203107 73 331 0.0 0.0 0.00 0.00 0.00 29 1006.3
20260504201600 74 346 0.0 0.0 0.00 0.00 0.00 30 1006.3
20260504200056 75 11 1.0 0.0 0.00 0.00 0.00 28 1006.4
20260504194551 73 286 0.0 0.0 0.00 0.00 0.00 34 1006.5
20260504193049 72 308 0.0 0.0 0.00 0.00 0.00 35 1006.7
20260504191548 70 13 0.0 0.0 0.00 0.00 0.00 39 1006.8
20260504190046 71 338 0.0 0.0 0.00 0.00 0.00 37 1007.0
20260504184545 71 351 0.0 0.0 0.00 0.00 0.00 37 1007.2
20260504183042 72 340 1.0 0.0 0.00 0.00 0.00 35 1007.3
20260504181540 71 296 1.0 0.0 0.00 0.00 0.00 39 1007.4
20260504180037 70 342 0.0 0.0 0.00 0.00 0.00 41 1007.4
20260504174534 68 338 0.0 0.0 0.00 0.00 0.00 40 1007.6
20260504173029 66 323 0.0 0.0 0.00 0.00 0.00 44 1007.8
20260504171524 64 283 0.0 0.0 0.00 0.00 0.00 49 1008.0
20260504081600 42 309 0.0 0.0 0.00 0.00 0.00 80 1008.4
20260504044541 56 309 0.0 0.0 0.00 0.00 0.00 55 1007.5
20260504043049 58 309 0.0 0.0 0.00 0.00 0.00 52 1007.5
20260504041541 60 309 0.0 0.0 0.00 0.00 0.00 49 1007.2
20260504040048 61 309 0.0 0.0 0.00 0.00 0.00 48 1007.0
20260504034543 61 309 0.0 0.0 0.00 0.00 0.00 49 1006.9
20260504033040 62 309 0.0 0.0 0.00 0.00 0.00 48 1006.9
20260504031544 63 309 0.0 0.0 0.00 0.00 0.00 47 1006.8
20260504030039 64 309 0.0 0.0 0.00 0.00 0.00 44 1006.7
20260504024547 66 309 0.0 0.0 0.00 0.00 0.00 42 1006.5
20260504023038 67 309 0.0 0.0 0.00 0.00 0.00 41 1006.4
20260504021538 67 309 0.0 0.0 0.00 0.00 0.00 40 1006.3
20260504020042 67 309 0.0 0.0 0.00 0.00 0.00 38 1006.4
20260504014535 67 309 0.0 0.0 0.00 0.00 0.00 39 1006.6
20260504013037 67 309 0.0 0.0 0.00 0.00 0.00 42 1006.6
20260504011534 68 350 0.0 0.0 0.00 0.00 0.00 41 1006.7
20260504010033 69 349 0.0 0.0 0.00 0.00 0.00 39 1006.9
20260504004536 69 5 1.0 0.0 0.00 0.00 0.00 37 1007.0
20260504003040 70 14 1.0 0.0 0.00 0.00 0.00 37 1007.2
20260504001538 69 11 0.0 0.0 0.00 0.00 0.00 37 1006.9
20260504000052 67 19 0.0 0.0 0.00 0.00 0.00 43 1006.7
20260503234527 67 61 0.0 0.0 0.00 0.00 0.00 49 1007.3
20260503233026 69 61 1.0 0.0 0.00 0.00 0.00 38 1008.1
20260503231526 73 329 1.0 0.0 0.00 0.00 0.00 31 1007.4